Sanger
DateTemperatureDew Point
05/05 - 04:45 AM55.9°51.8°
05/05 - 04:30 AM56.0°51.5°
05/05 - 04:15 AM56.1°51.3°
05/05 - 04:00 AM56.3°51.2°
05/05 - 03:45 AM56.3°51.3°
05/05 - 03:30 AM56.2°51.4°
05/05 - 03:15 AM56.2°51.5°
05/05 - 03:00 AM56.2°51.6°
05/05 - 02:45 AM56.2°51.6°
05/05 - 02:30 AM56.1°51.7°
05/05 - 02:15 AM56.2°51.7°
05/05 - 02:00 AM56.1°51.8°
05/05 - 01:45 AM56.0°52.1°
05/05 - 01:30 AM55.9°52.5°
05/05 - 01:15 AM55.7°52.8°
05/05 - 01:00 AM55.2°52.9°
05/05 - 12:45 AM54.5°52.4°
05/05 - 12:30 AM54.8°51.9°
05/05 - 12:15 AM55.5°52.0°
05/05 - 12:00 AM55.9°52.3°
05/04 - 11:45 PM55.9°52.6°
05/04 - 11:30 PM55.7°52.7°
05/04 - 11:15 PM55.4°52.7°
05/04 - 11:00 PM55.5°52.6°
05/04 - 10:45 PM55.2°52.4°
05/04 - 10:30 PM55.3°52.6°
05/04 - 10:15 PM55.4°52.6°
05/04 - 10:00 PM55.4°52.3°
05/04 - 09:45 PM56.3°52.6°
05/04 - 09:30 PM57.8°52.5°
05/04 - 09:15 PM58.9°51.8°
05/04 - 09:00 PM59.3°51.5°
05/04 - 08:45 PM59.4°51.3°
05/04 - 08:30 PM59.5°51.3°
05/04 - 08:15 PM59.7°51.1°
05/04 - 08:00 PM59.6°50.8°
05/04 - 07:45 PM59.7°51.5°
05/04 - 07:30 PM60.0°51.3°
05/04 - 07:15 PM60.5°51.1°
05/04 - 07:00 PM61.2°50.7°
05/04 - 06:45 PM61.5°50.6°
05/04 - 06:30 PM61.6°50.2°
05/04 - 06:15 PM62.7°50.6°
05/04 - 06:00 PM63.4°50.0°
05/04 - 05:45 PM65.0°51.3°
05/04 - 05:30 PM63.1°50.0°
05/04 - 05:15 PM62.8°50.1°
05/04 - 05:00 PM63.0°50.0°
05/04 - 04:45 PM63.1°50.3°
05/04 - 04:30 PM62.9°50.6°
05/04 - 04:15 PM63.3°50.6°
05/04 - 04:00 PM63.4°50.3°
05/04 - 03:45 PM63.4°50.8°
05/04 - 03:30 PM63.2°50.6°
05/04 - 03:15 PM63.3°50.9°
05/04 - 03:00 PM62.9°51.1°
05/04 - 02:45 PM62.7°50.9°
05/04 - 02:30 PM62.2°50.7°
05/04 - 02:15 PM61.5°50.5°
05/04 - 02:00 PM61.9°49.9°
05/04 - 01:45 PM62.1°49.3°
05/04 - 01:30 PM62.3°49.0°
05/04 - 01:15 PM61.7°47.6°
05/04 - 01:00 PM61.5°47.8°
05/04 - 12:45 PM61.5°48.7°
05/04 - 12:30 PM61.0°48.8°
05/04 - 12:15 PM60.5°48.9°
05/04 - 12:00 PM61.1°49.5°
05/04 - 11:45 AM60.9°49.7°
05/04 - 11:30 AM60.4°49.5°
05/04 - 11:15 AM60.1°49.7°
05/04 - 11:00 AM59.5°49.4°
05/04 - 10:45 AM59.4°49.8°
05/04 - 10:30 AM58.7°49.4°
05/04 - 10:15 AM58.4°49.1°
05/04 - 10:00 AM58.3°49.2°
05/04 - 09:45 AM57.9°49.0°
05/04 - 09:30 AM58.0°49.2°
05/04 - 09:15 AM58.0°49.2°
05/04 - 09:00 AM57.8°49.3°
05/04 - 08:45 AM57.3°49.1°
05/04 - 08:30 AM57.1°49.4°
05/04 - 08:15 AM56.7°49.2°
05/04 - 08:00 AM56.6°48.7°
05/04 - 07:45 AM56.5°48.7°
05/04 - 07:30 AM56.5°48.4°
05/04 - 07:15 AM56.3°48.0°
05/04 - 07:00 AM56.3°47.7°
05/04 - 06:45 AM56.4°47.5°
05/04 - 06:30 AM56.4°48.1°
05/04 - 06:15 AM56.4°48.6°
05/04 - 06:00 AM56.3°49.1°
05/04 - 05:45 AM56.2°49.9°
05/04 - 05:30 AM56.1°50.5°
05/04 - 05:15 AM56.1°50.5°
05/04 - 05:00 AM55.9°50.8°
05/04 - 04:45 AM55.3°50.9°
05/04 - 04:30 AM55.8°50.2°
05/04 - 04:15 AM56.4°49.1°
05/04 - 04:00 AM57.1°48.4°
05/04 - 03:45 AM57.6°48.1°
05/04 - 03:30 AM57.8°48.2°
05/04 - 03:15 AM58.0°48.2°
05/04 - 03:00 AM58.0°48.5°
05/04 - 02:45 AM57.9°48.0°
05/04 - 02:30 AM57.8°47.8°
05/04 - 02:15 AM58.1°47.7°
05/04 - 02:00 AM58.0°47.1°
05/04 - 01:45 AM58.1°46.8°
05/04 - 01:30 AM58.2°46.9°
05/04 - 01:15 AM58.5°47.5°
05/04 - 01:00 AM58.5°47.7°
05/04 - 12:45 AM58.7°47.7°
05/04 - 12:30 AM58.9°47.9°
05/04 - 12:15 AM58.7°48.1°
05/04 - 12:00 AM58.1°49.0°
05/03 - 11:45 PM57.8°48.4°
05/03 - 11:30 PM58.0°48.0°
05/03 - 11:15 PM57.8°48.7°
05/03 - 11:00 PM56.7°49.8°
05/03 - 10:45 PM56.5°50.9°
05/03 - 10:30 PM58.1°50.7°
05/03 - 10:15 PM59.9°49.9°
05/03 - 10:00 PM60.8°49.5°
05/03 - 09:45 PM61.7°49.4°
05/03 - 09:30 PM62.3°49.1°
05/03 - 09:15 PM62.7°49.3°
05/03 - 09:00 PM63.3°49.3°
05/03 - 08:45 PM64.1°49.2°
05/03 - 08:30 PM65.0°49.5°
05/03 - 08:15 PM66.2°51.0°
05/03 - 08:00 PM67.3°52.1°
05/03 - 07:45 PM68.4°50.2°
05/03 - 07:30 PM68.7°50.0°
05/03 - 07:15 PM70.1°53.5°
05/03 - 07:00 PM71.5°55.4°
05/03 - 06:45 PM72.1°54.5°
05/03 - 06:30 PM73.0°54.4°
05/03 - 06:15 PM74.4°54.5°
05/03 - 06:00 PM74.6°54.7°
05/03 - 05:45 PM75.0°54.6°
05/03 - 05:30 PM75.1°55.8°
05/03 - 05:15 PM76.2°55.0°
05/03 - 05:00 PM76.9°55.1°
05/03 - 04:45 PM75.1°54.1°
05/03 - 04:30 PM75.3°54.6°
05/03 - 04:15 PM74.5°54.6°
05/03 - 04:00 PM74.1°54.8°
05/03 - 03:45 PM73.9°54.0°
05/03 - 03:30 PM75.4°54.8°
05/03 - 03:15 PM77.3°55.6°
05/03 - 03:00 PM77.2°55.9°
05/03 - 02:45 PM76.9°55.7°
05/03 - 02:30 PM76.6°55.5°
05/03 - 02:15 PM76.4°56.5°
05/03 - 02:00 PM75.1°55.9°
05/03 - 01:45 PM74.5°56.0°
05/03 - 01:30 PM75.7°55.3°
05/03 - 01:15 PM74.6°55.4°
05/03 - 01:00 PM75.0°55.2°
05/03 - 12:45 PM72.3°54.5°
05/03 - 12:30 PM72.0°54.2°
05/03 - 12:15 PM73.2°55.2°
05/03 - 12:00 PM71.4°54.0°
05/03 - 11:45 AM70.9°54.1°
05/03 - 11:30 AM71.1°55.0°
05/03 - 11:15 AM69.4°54.4°
05/03 - 11:00 AM68.9°54.2°
05/03 - 10:45 AM67.8°53.9°
05/03 - 10:30 AM67.5°54.3°
05/03 - 10:15 AM66.6°54.1°
05/03 - 10:00 AM65.6°54.0°
05/03 - 09:45 AM64.5°53.6°
05/03 - 09:30 AM63.8°53.4°
05/03 - 09:15 AM63.3°53.7°
05/03 - 09:00 AM62.1°53.7°
05/03 - 08:45 AM61.1°53.3°
05/03 - 08:30 AM60.6°53.4°
05/03 - 08:15 AM59.8°53.5°
05/03 - 08:00 AM58.9°53.5°
05/03 - 07:45 AM57.9°54.0°
05/03 - 07:30 AM57.0°54.7°
05/03 - 07:15 AM55.6°55.2°
05/03 - 07:00 AM54.4°54.4°
05/03 - 06:45 AM53.5°53.4°
05/03 - 06:30 AM53.1°53.1°
05/03 - 06:15 AM53.1°53.0°
05/03 - 06:00 AM53.1°53.1°
05/03 - 05:45 AM53.3°53.3°
05/03 - 05:30 AM53.5°53.4°
05/03 - 05:15 AM53.7°53.6°